星链-31048 (STARLINK-31048 )

导读 | 豆包AI

STARLINK-31048是美国SpaceX星链互联网星座的组成卫星,于2023年12月8日发射入轨。作为Starlink低轨卫星互联网项目的批量卫星之一,它承担为全球偏远地区、移动场景等提供高速低延迟宽带互联网接入服务的任务,依托低轨部署,星链卫星可实现更优的网络信号覆盖与传输效率。

基本信息
目录编号:
58544
目录名称:
STARLINK-31048
国际标识:
2023-192P
轨道中心:
EARTH
卫星名称:
星链-31048
卫星全名:
星链-31048 (STARLINK-31048 )
卫星状态:
在轨 (已飞行874 天)
发射日期:
2023-12-08 UTC
国别 :
美国 (US)
星等 :
--
轨道信息
数据来源 国际轨道数据
星历时间: 2026-04-30T18:47:56+0800
10小时前
查看轨道信息
半长轴: 6853.37km
偏心率: 0.0001181
轨道倾角: 53.161°
近地点辐角 81.860°
升交点赤经 182.024°
平近点角 278.254°
近地点: 474.423km
远地点: 476.043km
周期: 94.106分钟
每日圈数: 15.301941
详细信息
固有亮度:
5
最大亮度:
0.3
卫星平台:
Starlink v2.0 mini
覆盖范围:
全球
运营商:
太空探索技术公司
运营商所在国:
美国
制造商(研发单位):
太空探索技术公司
制造商所在国:
美国
使用方式:
暂无
卫星简介
星链(Starlink)计划是由太空探索技术公司(SpaceX)提出的一个巨型低轨卫星互联网星座项目,计划在2019年至2024年间在太空搭建由约1.2万颗卫星组成的“星链”网络,其中1584颗将部署在地球上空550千米处的近地轨道,并从2020年开始工作。该卫星仍在工作。
2D轨道图
3D轨道图
轨道高度分析图
轨道倾角分析图
轨道综合分析图
查看轨道综合分析图